Location: Unnamed
(25.2826°S, 57.6099°W)
Time: 22:27:05
(UTC-04:00)

Envisat - Pass Details

Date: 19 January 2026
Orbit: 761 x 763 km, 98.4° (Epoch: 18 February)

Event Time Altitude Azimuth Distance (km) Brightness Sun altitude
Exits shadow 02:35:52 13° 217° (SW) 2,099 5.3 -30.9°
Drops below altitude 10° 02:36:29 10° 213° (SSW) 2,312 5.6 -30.8°
Sets 02:38:59 0° 204° (SSW) 3,245 6.5 -30.4°
